START_TIME,STEP,MOV.,P11,t_acc.,P23,t_acc.,P27,t_acc.,A4,t_acc.
1986-01-25 15:00:24.480 ,7,0,2.,4.8,0.,4.8,0.,4.8,0.,4.8
1986-01-25 15:00:29.280 ,7,0,9.,4.8,0.,4.8,0.,4.8,0.,4.8
1986-01-25 15:00:34.080 ,7,0,5.,4.8,0.,4.8,0.,4.8,0.,4.8
1986-01-25 15:00:38.880 ,7,0,7.,4.8,0.,4.8,0.,4.8,0.,4.8
1986-01-25 15:00:43.680 ,7,0,4.,4.8,0.,4.8,0.,4.8,0.,4.8
1986-01-25 15:00:48.480 ,6,0,5.,4.8,0.,4.8,0.,4.8,0.,4.8
1986-01-25 15:00:53.280 ,6,0,12.,4.8,0.,4.8,0.,4.8,0.,4.8
1986-01-25 15:00:58.080 ,6,0,10.,4.8,0.,4.8,0.,4.8,0.,4.8
1986-01-25 15:01:02.880 ,6,0,6.,4.8,0.,4.8,0.,4.8,0.,4.8
1986-01-25 15:01:07.680 ,6,0,1.,4.8,0.,4.8,0.,4.8,0.,4.8
1986-01-25 15:01:12.480 ,6,0,4.,4.8,0.,4.8,0.,4.8,0.,4.8
1986-01-25 15:01:17.280 ,6,0,11.,4.8,0.,4.8,0.,4.8,0.,4.8
1986-01-25 15:01:22.080 ,6,0,12.,4.8,0.,4.8,0.,4.8,0.,4.8
1986-01-25 15:01:26.880 ,6,0,10.,4.8,0.,4.8,0.,4.8,0.,4.8
1986-01-25 15:01:31.680 ,6,0,6.,4.8,0.,4.8,0.,4.8,0.,4.8
1986-01-25 15:01:36.480 ,5,0,6.,4.8,0.,4.8,0.,4.8,0.,4.8
1986-01-25 15:01:41.280 ,5,0,10.,4.8,0.,4.8,0.,4.8,0.,4.8
1986-01-25 15:01:46.080 ,5,0,11.,4.8,0.,4.8,0.,4.8,0.,4.8
1986-01-25 15:01:50.880 ,5,0,6.,4.8,0.,4.8,0.,4.8,0.,4.8
1986-01-25 15:01:55.680 ,5,0,14.,4.8,0.,4.8,0.,4.8,0.,4.8
1986-01-25 15:02:00.480 ,5,0,3.,4.8,0.,4.8,0.,4.8,0.,4.8
1986-01-25 15:02:05.280 ,5,0,7.,4.8,0.,4.8,0.,4.8,0.,4.8
1986-01-25 15:02:10.080 ,5,0,8.,4.8,0.,4.8,0.,4.8,0.,4.8
1986-01-25 15:02:14.880 ,5,0,5.,4.8,0.,4.8,0.,4.8,0.,4.8
1986-01-25 15:02:19.680 ,5,0,9.,4.8,0.,4.8,0.,4.8,0.,4.8
1986-01-25 15:02:24.480 ,4,0,6.,4.8,0.,4.8,0.,4.8,0.,4.8
1986-01-25 15:02:29.280 ,4,0,10.,4.8,0.,4.8,0.,4.8,0.,4.8
1986-01-25 15:02:34.080 ,4,0,7.,4.8,0.,4.8,0.,4.8,0.,4.8
1986-01-25 15:02:38.880 ,4,0,7.,4.8,0.,4.8,0.,4.8,0.,4.8
1986-01-25 15:02:43.680 ,4,0,11.,4.8,0.,4.8,0.,4.8,0.,4.8
1986-01-25 15:02:48.480 ,4,0,11.,4.8,0.,4.8,0.,4.8,0.,4.8
1986-01-25 15:02:53.280 ,4,0,6.,4.8,0.,4.8,0.,4.8,0.,4.8
1986-01-25 15:02:58.080 ,4,0,11.,4.8,0.,4.8,0.,4.8,0.,4.8
1986-01-25 15:03:02.880 ,4,0,4.,4.8,0.,4.8,0.,4.8,0.,4.8
1986-01-25 15:03:07.680 ,4,0,3.,4.8,0.,4.8,0.,4.8,0.,4.8
1986-01-25 15:03:12.480 ,3,0,8.,4.8,0.,4.8,0.,4.8,0.,4.8
1986-01-25 15:03:17.280 ,3,0,5.,4.8,0.,4.8,0.,4.8,0.,4.8
1986-01-25 15:03:22.080 ,3,0,12.,4.8,0.,4.8,0.,4.8,0.,4.8
1986-01-25 15:03:26.880 ,3,0,8.,4.8,0.,4.8,0.,4.8,0.,4.8
1986-01-25 15:03:31.680 ,3,0,10.,4.8,0.,4.8,0.,4.8,0.,4.8
1986-01-25 15:03:36.480 ,3,0,5.,4.8,0.,4.8,0.,4.8,0.,4.8
1986-01-25 15:03:41.280 ,3,0,8.,4.8,0.,4.8,0.,4.8,0.,4.8
1986-01-25 15:03:46.080 ,3,0,4.,4.8,0.,4.8,0.,4.8,0.,4.8
1986-01-25 15:03:50.880 ,3,0,9.,4.8,0.,4.8,0.,4.8,0.,4.8
1986-01-25 15:03:55.680 ,3,0,6.,4.8,0.,4.8,0.,4.8,0.,4.8
1986-01-25 15:04:00.480 ,2,0,6.,4.8,0.,4.8,0.,4.8,0.,4.8
1986-01-25 15:04:05.280 ,2,0,7.,4.8,0.,4.8,0.,4.8,0.,4.8
1986-01-25 15:04:10.080 ,2,0,7.,4.8,0.,4.8,0.,4.8,0.,4.8
1986-01-25 15:04:14.880 ,2,0,7.,4.8,0.,4.8,0.,4.8,0.,4.8
1986-01-25 15:04:19.680 ,2,0,9.,4.8,0.,4.8,0.,4.8,0.,4.8
1986-01-25 15:04:24.480 ,2,0,6.,4.8,0.,4.8,0.,4.8,0.,4.8
1986-01-25 15:04:29.280 ,2,0,6.,4.8,0.,4.8,0.,4.8,0.,4.8
1986-01-25 15:04:34.080 ,2,0,5.,4.8,0.,4.8,0.,4.8,0.,4.8
1986-01-25 15:04:38.880 ,2,0,5.,4.8,0.,4.8,0.,4.8,0.,4.8
1986-01-25 15:04:43.680 ,2,0,14.,4.8,0.,4.8,0.,4.8,0.,4.8
1986-01-25 15:04:48.480 ,1,0,8.,4.8,0.,4.8,0.,4.8,0.,4.8
1986-01-25 15:04:53.280 ,1,0,10.,4.8,0.,4.8,0.,4.8,0.,4.8
1986-01-25 15:04:58.080 ,1,0,7.,4.8,0.,4.8,0.,4.8,0.,4.8
1986-01-25 15:05:02.880 ,1,0,8.,4.8,0.,4.8,0.,4.8,0.,4.8
1986-01-25 15:05:07.680 ,1,0,8.,4.8,0.,4.8,0.,4.8,0.,4.8
1986-01-25 15:05:12.480 ,1,0,9.,4.8,0.,4.8,0.,4.8,0.,4.8
1986-01-25 15:05:17.280 ,1,0,7.,4.8,0.,4.8,0.,4.8,0.,4.8
1986-01-25 15:05:22.080 ,1,0,7.,4.8,0.,4.8,0.,4.8,0.,4.8
1986-01-25 15:05:26.880 ,1,0,5.,4.8,0.,4.8,0.,4.8,0.,4.8
1986-01-25 15:05:31.680 ,1,0,14.,4.8,0.,4.8,0.,4.8,0.,4.8
1986-01-25 15:05:36.480 ,0,0,9.,4.8,0.,4.8,0.,4.8,0.,4.8
1986-01-25 15:05:41.280 ,0,0,14.,4.8,0.,4.8,0.,4.8,0.,4.8
1986-01-25 15:05:46.080 ,0,0,6.,4.8,0.,4.8,0.,4.8,0.,4.8
1986-01-25 15:05:50.880 ,0,0,6.,4.8,0.,4.8,0.,4.8,0.,4.8
1986-01-25 15:05:55.680 ,0,0,9.,4.8,0.,4.8,0.,4.8,0.,4.8
1986-01-25 15:06:00.480 ,0,0,10.,4.8,0.,4.8,0.,4.8,0.,4.8
1986-01-25 15:06:05.280 ,0,0,6.,4.8,0.,4.8,0.,4.8,0.,4.8
1986-01-25 15:06:10.080 ,0,0,5.,4.8,0.,4.8,0.,4.8,0.,4.8
1986-01-25 15:06:14.880 ,0,0,5.,4.8,0.,4.8,0.,4.8,0.,4.8
1986-01-25 15:06:19.680 ,0,0,5.,4.8,0.,4.8,0.,4.8,0.,4.8
1986-01-25 15:06:24.480 ,0,0,6.,4.8,0.,4.8,0.,4.8,0.,4.8
1986-01-25 15:06:29.280 ,0,0,11.,4.8,0.,4.8,0.,4.8,0.,4.8
1986-01-25 15:06:34.080 ,0,0,6.,4.8,0.,4.8,0.,4.8,0.,4.8
1986-01-25 15:06:38.880 ,0,0,5.,4.8,0.,4.8,0.,4.8,0.,4.8
1986-01-25 15:06:43.680 ,0,0,11.,4.8,0.,4.8,0.,4.8,0.,4.8
1986-01-25 15:06:48.480 ,0,0,8.,4.8,0.,4.8,0.,4.8,0.,4.8
1986-01-25 15:06:53.280 ,0,0,8.,4.8,0.,4.8,0.,4.8,0.,4.8
1986-01-25 15:06:58.080 ,0,0,5.,4.8,0.,4.8,0.,4.8,0.,4.8
1986-01-25 15:07:02.880 ,0,0,9.,4.8,0.,4.8,0.,4.8,0.,4.8
1986-01-25 15:07:07.680 ,0,0,8.,4.8,0.,4.8,0.,4.8,0.,4.8
1986-01-25 15:07:12.480 ,1,0,9.,4.8,0.,4.8,0.,4.8,0.,4.8
1986-01-25 15:07:17.280 ,1,0,8.,4.8,0.,4.8,0.,4.8,0.,4.8
1986-01-25 15:07:22.080 ,1,0,12.,4.8,0.,4.8,0.,4.8,0.,4.8
1986-01-25 15:07:26.880 ,1,0,11.,4.8,0.,4.8,0.,4.8,0.,4.8
1986-01-25 15:07:31.680 ,1,0,4.,4.8,0.,4.8,0.,4.8,0.,4.8
1986-01-25 15:07:36.480 ,1,0,5.,4.8,0.,4.8,0.,4.8,0.,4.8
1986-01-25 15:07:41.280 ,1,0,5.,4.8,0.,4.8,0.,4.8,0.,4.8
1986-01-25 15:07:46.080 ,1,0,8.,4.8,0.,4.8,0.,4.8,0.,4.8
1986-01-25 15:07:50.880 ,1,0,6.,4.8,0.,4.8,0.,4.8,0.,4.8
1986-01-25 15:07:55.680 ,1,0,1.,4.8,0.,4.8,0.,4.8,0.,4.8
1986-01-25 15:08:00.480 ,2,0,7.,4.8,0.,4.8,0.,4.8,0.,4.8
1986-01-25 15:08:05.280 ,2,0,4.,4.8,0.,4.8,0.,4.8,0.,4.8
1986-01-25 15:08:10.080 ,2,0,4.,4.8,0.,4.8,0.,4.8,0.,4.8
1986-01-25 15:08:14.880 ,2,0,8.,4.8,0.,4.8,0.,4.8,0.,4.8
1986-01-25 15:08:19.680 ,2,0,11.,4.8,0.,4.8,0.,4.8,0.,4.8
1986-01-25 15:08:24.480 ,2,0,10.,4.8,0.,4.8,0.,4.8,0.,4.8
1986-01-25 15:08:29.280 ,2,0,8.,4.8,0.,4.8,0.,4.8,0.,4.8
1986-01-25 15:08:34.080 ,2,0,4.,4.8,0.,4.8,0.,4.8,0.,4.8
1986-01-25 15:08:38.880 ,2,0,9.,4.8,0.,4.8,0.,4.8,0.,4.8
1986-01-25 15:08:43.680 ,2,0,8.,4.8,0.,4.8,0.,4.8,0.,4.8
1986-01-25 15:08:48.480 ,3,0,8.,4.8,0.,4.8,0.,4.8,0.,4.8
1986-01-25 15:08:53.280 ,3,0,6.,4.8,0.,4.8,0.,4.8,0.,4.8
1986-01-25 15:08:58.080 ,3,0,7.,4.8,0.,4.8,0.,4.8,0.,4.8
1986-01-25 15:09:02.880 ,3,0,8.,4.8,0.,4.8,0.,4.8,0.,4.8
1986-01-25 15:09:07.680 ,3,0,9.,4.8,0.,4.8,0.,4.8,0.,4.8
1986-01-25 15:09:12.480 ,3,0,6.,4.8,0.,4.8,0.,4.8,0.,4.8
1986-01-25 15:09:17.280 ,3,0,13.,4.8,0.,4.8,0.,4.8,0.,4.8
1986-01-25 15:09:22.080 ,3,0,13.,4.8,0.,4.8,0.,4.8,0.,4.8
1986-01-25 15:09:26.880 ,3,0,12.,4.8,0.,4.8,0.,4.8,0.,4.8
1986-01-25 15:09:31.680 ,3,0,8.,4.8,0.,4.8,0.,4.8,0.,4.8
1986-01-25 15:09:36.480 ,4,0,8.,4.8,0.,4.8,0.,4.8,0.,4.8
1986-01-25 15:09:41.280 ,4,0,7.,4.8,0.,4.8,0.,4.8,0.,4.8
1986-01-25 15:09:46.080 ,4,0,6.,4.8,0.,4.8,0.,4.8,0.,4.8
1986-01-25 15:09:50.880 ,4,0,7.,4.8,0.,4.8,0.,4.8,0.,4.8
1986-01-25 15:09:55.680 ,4,0,6.,4.8,0.,4.8,0.,4.8,0.,4.8
1986-01-25 15:10:00.480 ,4,0,5.,4.8,0.,4.8,0.,4.8,0.,4.8
1986-01-25 15:10:05.280 ,4,0,4.,4.8,0.,4.8,0.,4.8,0.,4.8
1986-01-25 15:10:10.080 ,4,0,2.,4.8,0.,4.8,0.,4.8,0.,4.8
1986-01-25 15:10:14.880 ,4,0,7.,4.8,0.,4.8,0.,4.8,0.,4.8
1986-01-25 15:10:19.680 ,4,0,12.,4.8,0.,4.8,0.,4.8,0.,4.8
1986-01-25 15:10:24.480 ,5,0,5.,4.8,0.,4.8,0.,4.8,0.,4.8
1986-01-25 15:10:29.280 ,5,0,7.,4.8,0.,4.8,0.,4.8,0.,4.8
1986-01-25 15:10:34.080 ,5,0,9.,4.8,0.,4.8,0.,4.8,0.,4.8
1986-01-25 15:10:38.880 ,5,0,8.,4.8,0.,4.8,0.,4.8,0.,4.8
1986-01-25 15:10:43.680 ,5,0,4.,4.8,0.,4.8,0.,4.8,0.,4.8
1986-01-25 15:10:48.480 ,5,0,11.,4.8,0.,4.8,0.,4.8,0.,4.8
1986-01-25 15:10:53.280 ,5,0,11.,4.8,0.,4.8,0.,4.8,0.,4.8
1986-01-25 15:10:58.080 ,5,0,7.,4.8,0.,4.8,0.,4.8,0.,4.8
1986-01-25 15:11:02.880 ,5,0,4.,4.8,0.,4.8,0.,4.8,0.,4.8
1986-01-25 15:11:07.680 ,5,0,7.,4.8,0.,4.8,0.,4.8,0.,4.8
1986-01-25 15:11:12.480 ,6,0,6.,4.8,0.,4.8,0.,4.8,0.,4.8
1986-01-25 15:11:17.280 ,6,0,7.,4.8,0.,4.8,0.,4.8,0.,4.8
1986-01-25 15:11:22.080 ,6,0,13.,4.8,0.,4.8,0.,4.8,0.,4.8
1986-01-25 15:11:26.880 ,6,0,7.,4.8,0.,4.8,0.,4.8,0.,4.8
1986-01-25 15:11:31.680 ,6,0,6.,4.8,0.,4.8,0.,4.8,0.,4.8
1986-01-25 15:11:36.480 ,6,0,6.,4.8,0.,4.8,0.,4.8,0.,4.8
1986-01-25 15:11:41.280 ,6,0,10.,4.8,0.,4.8,0.,4.8,0.,4.8
1986-01-25 15:11:46.080 ,6,0,6.,4.8,0.,4.8,0.,4.8,0.,4.8
1986-01-25 15:11:50.880 ,6,0,5.,4.8,0.,4.8,0.,4.8,0.,4.8
1986-01-25 15:11:55.680 ,6,0,6.,4.8,0.,4.8,0.,4.8,0.,4.8
1986-01-25 15:12:00.480 ,7,0,9.,4.8,0.,4.8,0.,4.8,0.,4.8
1986-01-25 15:12:05.280 ,7,0,6.,4.8,0.,4.8,0.,4.8,0.,4.8
1986-01-25 15:12:10.080 ,7,0,5.,4.8,0.,4.8,0.,4.8,0.,4.8
1986-01-25 15:12:14.880 ,7,0,6.,4.8,0.,4.8,0.,4.8,0.,4.8
1986-01-25 15:12:19.680 ,7,0,8.,4.8,0.,4.8,0.,4.8,0.,4.8
1986-01-25 15:12:24.480 ,7,0,8.,4.8,0.,4.8,0.,4.8,0.,4.8
1986-01-25 15:12:29.280 ,7,0,11.,4.8,0.,4.8,0.,4.8,0.,4.8
1986-01-25 15:12:34.080 ,7,0,5.,4.8,0.,4.8,0.,4.8,0.,4.8
1986-01-25 15:12:38.880 ,7,0,8.,4.8,0.,4.8,0.,4.8,0.,4.8
1986-01-25 15:12:43.680 ,7,0,9.,4.8,0.,4.8,0.,4.8,0.,4.8
1986-01-25 15:12:48.480 ,7,0,7.,4.8,0.,4.8,0.,4.8,0.,4.8
1986-01-25 15:12:53.280 ,7,0,8.,4.8,0.,4.8,0.,4.8,0.,4.8
1986-01-25 15:12:58.080 ,7,0,6.,4.8,0.,4.8,0.,4.8,0.,4.8
1986-01-25 15:13:02.880 ,7,0,6.,4.8,0.,4.8,0.,4.8,0.,4.8
1986-01-25 15:13:07.680 ,7,0,11.,4.8,0.,4.8,0.,4.8,0.,4.8
1986-01-25 15:13:12.480 ,7,0,8.,4.8,0.,4.8,0.,4.8,0.,4.8
1986-01-25 15:13:17.280 ,7,0,3.,4.8,0.,4.8,0.,4.8,0.,4.8
1986-01-25 15:13:22.080 ,7,0,6.,4.8,0.,4.8,0.,4.8,0.,4.8
1986-01-25 15:13:26.880 ,7,0,9.,4.8,0.,4.8,0.,4.8,0.,4.8
1986-01-25 15:13:31.680 ,7,0,7.,4.8,0.,4.8,0.,4.8,0.,4.8
1986-01-25 15:13:36.480 ,6,0,6.,4.8,0.,4.8,0.,4.8,0.,4.8
1986-01-25 15:13:41.280 ,6,0,9.,4.8,0.,4.8,0.,4.8,0.,4.8
1986-01-25 15:13:46.080 ,6,0,4.,4.8,0.,4.8,0.,4.8,0.,4.8
1986-01-25 15:13:50.880 ,6,0,6.,4.8,0.,4.8,0.,4.8,0.,4.8
1986-01-25 15:13:55.680 ,6,0,13.,4.8,0.,4.8,0.,4.8,0.,4.8
1986-01-25 15:14:00.480 ,6,0,8.,4.8,0.,4.8,0.,4.8,0.,4.8
1986-01-25 15:14:05.280 ,6,0,6.,4.8,0.,4.8,0.,4.8,0.,4.8
1986-01-25 15:14:10.080 ,6,0,7.,4.8,0.,4.8,0.,4.8,0.,4.8
1986-01-25 15:14:14.880 ,6,0,5.,4.8,0.,4.8,0.,4.8,0.,4.8
1986-01-25 15:14:19.680 ,6,0,9.,4.8,0.,4.8,0.,4.8,0.,4.8
1986-01-25 15:14:24.480 ,5,0,9.,4.8,0.,4.8,0.,4.8,0.,4.8
1986-01-25 15:14:29.280 ,5,0,4.,4.8,0.,4.8,0.,4.8,0.,4.8
1986-01-25 15:14:34.080 ,5,0,7.,4.8,0.,4.8,0.,4.8,0.,4.8
1986-01-25 15:14:38.880 ,5,0,4.,4.8,0.,4.8,0.,4.8,0.,4.8
1986-01-25 15:14:43.680 ,5,0,8.,4.8,0.,4.8,0.,4.8,0.,4.8
1986-01-25 15:14:48.480 ,5,0,9.,4.8,0.,4.8,0.,4.8,0.,4.8
1986-01-25 15:14:53.280 ,5,0,7.,4.8,0.,4.8,0.,4.8,0.,4.8
1986-01-25 15:14:58.080 ,5,0,8.,4.8,0.,4.8,0.,4.8,0.,4.8
1986-01-25 15:15:02.880 ,5,0,16.,4.8,0.,4.8,0.,4.8,0.,4.8
1986-01-25 15:15:07.680 ,5,0,7.,4.8,0.,4.8,0.,4.8,0.,4.8
1986-01-25 15:15:12.480 ,4,0,7.,4.8,0.,4.8,0.,4.8,0.,4.8
1986-01-25 15:15:17.280 ,4,0,8.,4.8,0.,4.8,0.,4.8,0.,4.8
1986-01-25 15:15:22.080 ,4,0,7.,4.8,0.,4.8,0.,4.8,0.,4.8
1986-01-25 15:15:26.880 ,4,0,7.,4.8,0.,4.8,0.,4.8,0.,4.8
1986-01-25 15:15:31.680 ,4,0,5.,4.8,0.,4.8,0.,4.8,0.,4.8
1986-01-25 15:15:36.480 ,4,0,10.,4.8,0.,4.8,0.,4.8,0.,4.8
1986-01-25 15:15:41.280 ,4,0,12.,4.8,0.,4.8,0.,4.8,0.,4.8
1986-01-25 15:15:46.080 ,4,0,9.,4.8,0.,4.8,0.,4.8,0.,4.8
1986-01-25 15:15:50.880 ,4,0,7.,4.8,0.,4.8,0.,4.8,0.,4.8
1986-01-25 15:15:55.680 ,4,0,10.,4.8,0.,4.8,0.,4.8,0.,4.8
1986-01-25 15:16:00.480 ,3,0,3.,4.8,0.,4.8,0.,4.8,0.,4.8
1986-01-25 15:16:05.280 ,3,0,7.,4.8,0.,4.8,0.,4.8,0.,4.8
1986-01-25 15:16:10.080 ,3,0,7.,4.8,0.,4.8,0.,4.8,0.,4.8
1986-01-25 15:16:14.880 ,3,0,10.,4.8,0.,4.8,0.,4.8,0.,4.8
1986-01-25 15:16:19.680 ,3,0,8.,4.8,0.,4.8,0.,4.8,0.,4.8
1986-01-25 15:16:24.480 ,3,0,3.,4.8,0.,4.8,0.,4.8,0.,4.8
1986-01-25 15:16:29.280 ,3,0,10.,4.8,0.,4.8,0.,4.8,0.,4.8
1986-01-25 15:16:34.080 ,3,0,3.,4.8,0.,4.8,0.,4.8,0.,4.8
1986-01-25 15:16:38.880 ,3,0,8.,4.8,0.,4.8,0.,4.8,0.,4.8
1986-01-25 15:16:43.680 ,3,0,10.,4.8,0.,4.8,0.,4.8,0.,4.8
1986-01-25 15:16:48.480 ,2,0,6.,4.8,0.,4.8,0.,4.8,0.,4.8
1986-01-25 15:16:53.280 ,2,0,8.,4.8,0.,4.8,0.,4.8,0.,4.8
1986-01-25 15:16:58.080 ,2,0,5.,4.8,0.,4.8,0.,4.8,0.,4.8
1986-01-25 15:17:02.880 ,2,0,8.,4.8,0.,4.8,0.,4.8,0.,4.8
1986-01-25 15:17:07.680 ,2,0,7.,4.8,0.,4.8,0.,4.8,0.,4.8
1986-01-25 15:17:12.480 ,2,0,5.,4.8,0.,4.8,0.,4.8,0.,4.8
1986-01-25 15:17:17.280 ,2,0,7.,4.8,0.,4.8,0.,4.8,0.,4.8
1986-01-25 15:17:22.080 ,2,0,9.,4.8,0.,4.8,0.,4.8,0.,4.8
1986-01-25 15:17:26.880 ,2,0,6.,4.8,0.,4.8,0.,4.8,0.,4.8
1986-01-25 15:17:31.680 ,2,0,8.,4.8,0.,4.8,0.,4.8,0.,4.8
1986-01-25 15:17:36.480 ,1,0,3.,4.8,0.,4.8,0.,4.8,0.,4.8
1986-01-25 15:17:41.280 ,1,0,12.,4.8,0.,4.8,0.,4.8,0.,4.8
1986-01-25 15:17:46.080 ,1,0,8.,4.8,0.,4.8,0.,4.8,0.,4.8
1986-01-25 15:17:50.880 ,1,0,7.,4.8,0.,4.8,0.,4.8,0.,4.8
1986-01-25 15:17:55.680 ,1,0,9.,4.8,0.,4.8,0.,4.8,0.,4.8
1986-01-25 15:18:00.480 ,1,0,6.,4.8,0.,4.8,0.,4.8,0.,4.8
1986-01-25 15:18:05.280 ,1,0,4.,4.8,0.,4.8,0.,4.8,0.,4.8
1986-01-25 15:18:10.080 ,1,0,10.,4.8,0.,4.8,0.,4.8,0.,4.8
1986-01-25 15:18:14.880 ,1,0,7.,4.8,0.,4.8,0.,4.8,0.,4.8
1986-01-25 15:18:19.680 ,1,0,10.,4.8,0.,4.8,0.,4.8,0.,4.8
1986-01-25 15:18:24.480 ,0,0,10.,4.8,0.,4.8,0.,4.8,0.,4.8
1986-01-25 15:18:29.280 ,0,0,8.,4.8,0.,4.8,0.,4.8,0.,4.8
1986-01-25 15:18:34.080 ,0,0,2.,4.8,0.,4.8,0.,4.8,0.,4.8
1986-01-25 15:18:38.880 ,0,0,4.,4.8,0.,4.8,0.,4.8,0.,4.8
1986-01-25 15:18:43.680 ,0,0,8.,4.8,0.,4.8,0.,4.8,0.,4.8
1986-01-25 15:18:48.480 ,0,0,14.,4.8,0.,4.8,0.,4.8,0.,4.8
1986-01-25 15:18:53.280 ,0,0,7.,4.8,0.,4.8,0.,4.8,0.,4.8
1986-01-25 15:18:58.080 ,0,0,6.,4.8,0.,4.8,0.,4.8,0.,4.8
1986-01-25 15:19:02.880 ,0,0,4.,4.8,0.,4.8,0.,4.8,0.,4.8
1986-01-25 15:19:07.680 ,0,0,7.,4.8,0.,4.8,0.,4.8,0.,4.8
1986-01-25 15:19:12.480 ,0,0,6.,4.8,0.,4.8,0.,4.8,0.,4.8
1986-01-25 15:19:17.280 ,0,0,7.,4.8,0.,4.8,0.,4.8,0.,4.8
1986-01-25 15:19:22.080 ,0,0,8.,4.8,0.,4.8,0.,4.8,0.,4.8
1986-01-25 15:19:26.880 ,0,0,7.,4.8,0.,4.8,0.,4.8,0.,4.8
1986-01-25 15:19:31.680 ,0,0,10.,4.8,0.,4.8,0.,4.8,0.,4.8
1986-01-25 15:19:36.480 ,0,0,8.,4.8,0.,4.8,0.,4.8,0.,4.8
1986-01-25 15:19:41.280 ,0,0,8.,4.8,0.,4.8,0.,4.8,0.,4.8
1986-01-25 15:19:46.080 ,0,0,7.,4.8,0.,4.8,0.,4.8,0.,4.8
1986-01-25 15:19:50.880 ,0,0,4.,4.8,0.,4.8,0.,4.8,0.,4.8
1986-01-25 15:19:55.680 ,0,0,9.,4.8,0.,4.8,0.,4.8,0.,4.8
1986-01-25 15:20:00.480 ,1,0,10.,4.8,0.,4.8,0.,4.8,0.,4.8
1986-01-25 15:20:05.280 ,1,0,6.,4.8,0.,4.8,0.,4.8,0.,4.8
1986-01-25 15:20:10.080 ,1,0,9.,4.8,0.,4.8,0.,4.8,0.,4.8
1986-01-25 15:20:14.880 ,1,0,10.,4.8,0.,4.8,0.,4.8,0.,4.8
1986-01-25 15:20:19.680 ,1,0,8.,4.8,0.,4.8,0.,4.8,0.,4.8
1986-01-25 15:20:24.480 ,1,0,8.,4.8,0.,4.8,0.,4.8,0.,4.8
1986-01-25 15:20:29.280 ,1,0,6.,4.8,0.,4.8,0.,4.8,0.,4.8
1986-01-25 15:20:34.080 ,1,0,8.,4.8,0.,4.8,0.,4.8,0.,4.8
1986-01-25 15:20:38.880 ,1,0,8.,4.8,0.,4.8,0.,4.8,0.,4.8
1986-01-25 15:20:43.680 ,1,0,8.,4.8,0.,4.8,0.,4.8,0.,4.8
1986-01-25 15:20:48.480 ,2,0,4.,4.8,0.,4.8,0.,4.8,0.,4.8
1986-01-25 15:20:53.280 ,2,0,2.,4.8,0.,4.8,0.,4.8,0.,4.8
1986-01-25 15:20:58.080 ,2,0,8.,4.8,0.,4.8,0.,4.8,0.,4.8
1986-01-25 15:21:02.880 ,2,0,3.,4.8,0.,4.8,0.,4.8,0.,4.8
1986-01-25 15:21:07.680 ,2,0,10.,4.8,0.,4.8,0.,4.8,0.,4.8
1986-01-25 15:21:12.480 ,2,0,10.,4.8,0.,4.8,0.,4.8,0.,4.8
1986-01-25 15:21:17.280 ,2,0,10.,4.8,0.,4.8,0.,4.8,0.,4.8
1986-01-25 15:21:22.080 ,2,0,6.,4.8,0.,4.8,0.,4.8,0.,4.8
1986-01-25 15:21:26.880 ,2,0,9.,4.8,0.,4.8,0.,4.8,0.,4.8
1986-01-25 15:21:31.680 ,2,0,7.,4.8,0.,4.8,0.,4.8,0.,4.8
1986-01-25 15:21:36.480 ,3,0,6.,4.8,0.,4.8,0.,4.8,0.,4.8
1986-01-25 15:21:41.280 ,3,0,7.,4.8,0.,4.8,0.,4.8,0.,4.8
1986-01-25 15:21:46.080 ,3,0,1.,4.8,0.,4.8,0.,4.8,0.,4.8
1986-01-25 15:21:50.880 ,3,0,14.,4.8,0.,4.8,0.,4.8,0.,4.8
1986-01-25 15:21:55.680 ,3,0,7.,4.8,0.,4.8,0.,4.8,0.,4.8
1986-01-25 15:22:00.480 ,3,0,3.,4.8,0.,4.8,0.,4.8,0.,4.8
1986-01-25 15:22:05.280 ,3,0,4.,4.8,0.,4.8,0.,4.8,0.,4.8
1986-01-25 15:22:10.080 ,3,0,11.,4.8,0.,4.8,0.,4.8,0.,4.8
1986-01-25 15:22:14.880 ,3,0,8.,4.8,0.,4.8,0.,4.8,0.,4.8
1986-01-25 15:22:19.680 ,3,0,6.,4.8,0.,4.8,0.,4.8,0.,4.8
1986-01-25 15:22:24.480 ,4,0,11.,4.8,0.,4.8,0.,4.8,0.,4.8
1986-01-25 15:22:29.280 ,4,0,5.,4.8,0.,4.8,0.,4.8,0.,4.8
1986-01-25 15:22:34.080 ,4,0,11.,4.8,0.,4.8,0.,4.8,0.,4.8
1986-01-25 15:22:38.880 ,4,0,6.,4.8,0.,4.8,0.,4.8,0.,4.8
1986-01-25 15:22:43.680 ,4,0,15.,4.8,0.,4.8,0.,4.8,0.,4.8
1986-01-25 15:22:48.480 ,4,0,4.,4.8,0.,4.8,0.,4.8,0.,4.8
1986-01-25 15:22:53.280 ,4,0,3.,4.8,0.,4.8,0.,4.8,0.,4.8
1986-01-25 15:22:58.080 ,4,0,8.,4.8,0.,4.8,0.,4.8,0.,4.8
1986-01-25 15:23:02.880 ,4,0,9.,4.8,0.,4.8,0.,4.8,0.,4.8
1986-01-25 15:23:07.680 ,4,0,6.,4.8,0.,4.8,0.,4.8,0.,4.8
1986-01-25 15:23:12.480 ,5,0,6.,4.8,0.,4.8,0.,4.8,0.,4.8
1986-01-25 15:23:17.280 ,5,0,5.,4.8,0.,4.8,0.,4.8,0.,4.8
1986-01-25 15:23:22.080 ,5,0,7.,4.8,0.,4.8,0.,4.8,0.,4.8
1986-01-25 15:23:26.880 ,5,0,11.,4.8,0.,4.8,0.,4.8,0.,4.8
1986-01-25 15:23:31.680 ,5,0,5.,4.8,0.,4.8,0.,4.8,0.,4.8
1986-01-25 15:23:36.480 ,5,0,10.,4.8,0.,4.8,0.,4.8,0.,4.8
1986-01-25 15:23:41.280 ,5,0,10.,4.8,0.,4.8,0.,4.8,0.,4.8
1986-01-25 15:23:46.080 ,5,0,15.,4.8,0.,4.8,0.,4.8,0.,4.8
1986-01-25 15:23:50.880 ,5,0,5.,4.8,0.,4.8,0.,4.8,0.,4.8
1986-01-25 15:23:55.680 ,5,0,6.,4.8,0.,4.8,0.,4.8,0.,4.8
1986-01-25 15:24:00.480 ,6,0,6.,4.8,0.,4.8,0.,4.8,0.,4.8
1986-01-25 15:24:05.280 ,6,0,6.,4.8,0.,4.8,0.,4.8,0.,4.8
1986-01-25 15:24:10.080 ,6,0,4.,4.8,0.,4.8,0.,4.8,0.,4.8
1986-01-25 15:24:14.880 ,6,0,6.,4.8,0.,4.8,0.,4.8,0.,4.8
1986-01-25 15:24:19.680 ,6,0,12.,4.8,0.,4.8,0.,4.8,0.,4.8
1986-01-25 15:24:24.480 ,6,0,14.,4.8,0.,4.8,0.,4.8,0.,4.8
1986-01-25 15:24:29.280 ,6,0,7.,4.8,0.,4.8,0.,4.8,0.,4.8
1986-01-25 15:24:34.080 ,6,0,3.,4.8,0.,4.8,0.,4.8,0.,4.8
1986-01-25 15:24:38.880 ,6,0,6.,4.8,0.,4.8,0.,4.8,0.,4.8
1986-01-25 15:24:43.680 ,6,0,4.,4.8,0.,4.8,0.,4.8,0.,4.8
1986-01-25 15:24:48.480 ,7,0,11.,4.8,0.,4.8,0.,4.8,0.,4.8
1986-01-25 15:24:53.280 ,7,0,8.,4.8,0.,4.8,0.,4.8,0.,4.8
1986-01-25 15:24:58.080 ,7,0,8.,4.8,0.,4.8,0.,4.8,0.,4.8
1986-01-25 15:25:02.880 ,7,0,12.,4.8,0.,4.8,0.,4.8,0.,4.8
1986-01-25 15:25:07.680 ,7,0,5.,4.8,0.,4.8,0.,4.8,0.,4.8
1986-01-25 15:25:12.480 ,7,0,8.,4.8,0.,4.8,0.,4.8,0.,4.8
1986-01-25 15:25:17.280 ,7,0,7.,4.8,0.,4.8,0.,4.8,0.,4.8
1986-01-25 15:25:22.080 ,7,0,10.,4.8,0.,4.8,0.,4.8,0.,4.8
1986-01-25 15:25:26.880 ,7,0,2.,4.8,0.,4.8,0.,4.8,0.,4.8
1986-01-25 15:25:31.680 ,7,0,8.,4.8,0.,4.8,0.,4.8,0.,4.8
1986-01-25 15:25:36.480 ,7,0,6.,4.8,0.,4.8,0.,4.8,0.,4.8
1986-01-25 15:25:41.280 ,7,0,13.,4.8,0.,4.8,0.,4.8,0.,4.8
1986-01-25 15:25:46.080 ,7,0,5.,4.8,0.,4.8,0.,4.8,0.,4.8
1986-01-25 15:25:50.880 ,7,0,7.,4.8,0.,4.8,0.,4.8,0.,4.8
1986-01-25 15:25:55.680 ,7,0,5.,4.8,0.,4.8,0.,4.8,0.,4.8
1986-01-25 15:26:00.480 ,7,0,9.,4.8,0.,4.8,0.,4.8,0.,4.8
1986-01-25 15:26:05.280 ,7,0,7.,4.8,0.,4.8,0.,4.8,0.,4.8
1986-01-25 15:26:10.080 ,7,0,5.,4.8,0.,4.8,0.,4.8,0.,4.8
1986-01-25 15:26:14.880 ,7,0,12.,4.8,0.,4.8,0.,4.8,0.,4.8
1986-01-25 15:26:19.680 ,7,0,2.,4.8,0.,4.8,0.,4.8,0.,4.8
1986-01-25 15:26:24.480 ,6,0,12.,4.8,0.,4.8,0.,4.8,0.,4.8
1986-01-25 15:26:29.280 ,6,0,5.,4.8,0.,4.8,0.,4.8,0.,4.8
1986-01-25 15:26:34.080 ,6,0,5.,4.8,0.,4.8,0.,4.8,0.,4.8
1986-01-25 15:26:38.880 ,6,0,6.,4.8,0.,4.8,0.,4.8,0.,4.8
1986-01-25 15:26:43.680 ,6,0,9.,4.8,0.,4.8,0.,4.8,0.,4.8
1986-01-25 15:26:48.480 ,6,0,1.,4.8,0.,4.8,0.,4.8,0.,4.8
1986-01-25 15:26:53.280 ,6,0,10.,4.8,0.,4.8,0.,4.8,0.,4.8
1986-01-25 15:26:58.080 ,6,0,7.,4.8,0.,4.8,0.,4.8,0.,4.8
1986-01-25 15:27:02.880 ,6,0,12.,4.8,0.,4.8,0.,4.8,0.,4.8
1986-01-25 15:27:07.680 ,6,0,5.,4.8,0.,4.8,0.,4.8,0.,4.8
1986-01-25 15:27:12.480 ,5,0,9.,4.8,0.,4.8,0.,4.8,0.,4.8
1986-01-25 15:27:17.280 ,5,0,8.,4.8,0.,4.8,0.,4.8,0.,4.8
1986-01-25 15:27:22.080 ,5,0,8.,4.8,0.,4.8,0.,4.8,0.,4.8
1986-01-25 15:27:26.880 ,5,0,6.,4.8,0.,4.8,0.,4.8,0.,4.8
1986-01-25 15:27:31.680 ,5,0,12.,4.8,0.,4.8,0.,4.8,0.,4.8
1986-01-25 15:27:36.480 ,5,0,10.,4.8,0.,4.8,0.,4.8,0.,4.8
1986-01-25 15:27:41.280 ,5,0,8.,4.8,0.,4.8,0.,4.8,0.,4.8
1986-01-25 15:27:46.080 ,5,0,4.,4.8,0.,4.8,0.,4.8,0.,4.8
1986-01-25 15:27:50.880 ,5,0,3.,4.8,0.,4.8,0.,4.8,0.,4.8
1986-01-25 15:27:55.680 ,5,0,4.,4.8,0.,4.8,0.,4.8,0.,4.8
1986-01-25 15:28:00.480 ,4,0,5.,4.8,0.,4.8,0.,4.8,0.,4.8
1986-01-25 15:28:05.280 ,4,0,10.,4.8,0.,4.8,0.,4.8,0.,4.8
1986-01-25 15:28:10.080 ,4,0,6.,4.8,0.,4.8,0.,4.8,0.,4.8
1986-01-25 15:28:14.880 ,4,0,8.,4.8,0.,4.8,0.,4.8,0.,4.8
1986-01-25 15:28:19.680 ,4,0,11.,4.8,0.,4.8,0.,4.8,0.,4.8
1986-01-25 15:28:24.480 ,4,0,2.,4.8,0.,4.8,0.,4.8,0.,4.8
1986-01-25 15:28:29.280 ,4,0,8.,4.8,0.,4.8,0.,4.8,0.,4.8
1986-01-25 15:28:34.080 ,4,0,8.,4.8,0.,4.8,0.,4.8,0.,4.8
1986-01-25 15:28:38.880 ,4,0,7.,4.8,0.,4.8,0.,4.8,0.,4.8
1986-01-25 15:28:43.680 ,4,0,8.,4.8,0.,4.8,0.,4.8,0.,4.8
1986-01-25 15:28:48.480 ,3,0,12.,4.8,0.,4.8,0.,4.8,0.,4.8
1986-01-25 15:28:53.280 ,3,0,7.,4.8,0.,4.8,0.,4.8,0.,4.8
1986-01-25 15:28:58.080 ,3,0,4.,4.8,0.,4.8,0.,4.8,0.,4.8
1986-01-25 15:29:02.880 ,3,0,6.,4.8,0.,4.8,0.,4.8,0.,4.8
1986-01-25 15:29:07.680 ,3,0,11.,4.8,0.,4.8,0.,4.8,0.,4.8
1986-01-25 15:29:12.480 ,3,0,4.,4.8,0.,4.8,0.,4.8,0.,4.8
1986-01-25 15:29:17.280 ,3,0,8.,4.8,0.,4.8,0.,4.8,0.,4.8
1986-01-25 15:29:22.080 ,3,0,15.,4.8,0.,4.8,0.,4.8,0.,4.8
1986-01-25 15:29:26.880 ,3,0,6.,4.8,0.,4.8,0.,4.8,0.,4.8
1986-01-25 15:29:31.680 ,3,0,6.,4.8,0.,4.8,0.,4.8,0.,4.8
1986-01-25 15:29:36.480 ,2,0,10.,4.8,0.,4.8,0.,4.8,0.,4.8
1986-01-25 15:29:41.280 ,2,0,7.,4.8,0.,4.8,0.,4.8,0.,4.8
1986-01-25 15:29:46.080 ,2,0,4.,4.8,0.,4.8,0.,4.8,0.,4.8
1986-01-25 15:29:50.880 ,2,0,10.,4.8,0.,4.8,0.,4.8,0.,4.8
1986-01-25 15:29:55.680 ,2,0,8.,4.8,0.,4.8,0.,4.8,0.,4.8
1986-01-25 15:30:00.480 ,2,0,7.,4.8,0.,4.8,0.,4.8,0.,4.8
1986-01-25 15:30:05.280 ,2,0,10.,4.8,0.,4.8,0.,4.8,0.,4.8
1986-01-25 15:30:10.080 ,2,0,4.,4.8,0.,4.8,0.,4.8,0.,4.8
1986-01-25 15:30:14.880 ,2,0,9.,4.8,0.,4.8,0.,4.8,0.,4.8
1986-01-25 15:30:19.680 ,2,0,7.,4.8,0.,4.8,0.,4.8,0.,4.8
1986-01-25 15:30:24.480 ,1,0,6.,4.8,0.,4.8,0.,4.8,0.,4.8
1986-01-25 15:30:29.280 ,1,0,9.,4.8,0.,4.8,0.,4.8,0.,4.8
1986-01-25 15:30:34.080 ,1,0,7.,4.8,0.,4.8,0.,4.8,0.,4.8
1986-01-25 15:30:38.880 ,1,0,6.,4.8,0.,4.8,0.,4.8,0.,4.8
1986-01-25 15:30:43.680 ,1,0,5.,4.8,0.,4.8,0.,4.8,0.,4.8
1986-01-25 15:30:48.480 ,1,0,9.,4.8,0.,4.8,0.,4.8,0.,4.8
1986-01-25 15:30:53.280 ,1,0,5.,4.8,0.,4.8,0.,4.8,0.,4.8
1986-01-25 15:30:58.080 ,1,0,7.,4.8,0.,4.8,0.,4.8,0.,4.8
1986-01-25 15:31:02.880 ,1,0,11.,4.8,0.,4.8,0.,4.8,0.,4.8
1986-01-25 15:31:07.680 ,1,0,5.,4.8,0.,4.8,0.,4.8,0.,4.8
1986-01-25 15:31:12.480 ,0,0,9.,4.8,0.,4.8,0.,4.8,0.,4.8
1986-01-25 15:31:17.280 ,0,0,7.,4.8,0.,4.8,0.,4.8,0.,4.8
1986-01-25 15:31:22.080 ,0,0,12.,4.8,0.,4.8,0.,4.8,0.,4.8
1986-01-25 15:31:26.880 ,0,0,8.,4.8,0.,4.8,0.,4.8,0.,4.8
1986-01-25 15:31:31.680 ,0,0,9.,4.8,0.,4.8,0.,4.8,0.,4.8
1986-01-25 15:31:36.480 ,0,0,12.,4.8,0.,4.8,0.,4.8,0.,4.8
1986-01-25 15:31:41.280 ,0,0,7.,4.8,0.,4.8,0.,4.8,0.,4.8
1986-01-25 15:31:46.080 ,0,0,12.,4.8,0.,4.8,0.,4.8,0.,4.8
1986-01-25 15:31:50.880 ,0,0,4.,4.8,0.,4.8,0.,4.8,0.,4.8
1986-01-25 15:31:55.680 ,0,0,8.,4.8,0.,4.8,0.,4.8,0.,4.8
1986-01-25 15:32:00.480 ,0,0,9.,4.8,0.,4.8,0.,4.8,0.,4.8
1986-01-25 15:32:05.280 ,0,0,7.,4.8,0.,4.8,0.,4.8,0.,4.8
1986-01-25 15:32:10.080 ,0,0,12.,4.8,0.,4.8,0.,4.8,0.,4.8
1986-01-25 15:32:14.880 ,0,0,9.,4.8,0.,4.8,0.,4.8,0.,4.8
1986-01-25 15:32:19.680 ,0,0,4.,4.8,0.,4.8,0.,4.8,0.,4.8
1986-01-25 15:32:24.480 ,0,0,8.,4.8,0.,4.8,0.,4.8,0.,4.8
1986-01-25 15:32:29.280 ,0,0,6.,4.8,0.,4.8,0.,4.8,0.,4.8
1986-01-25 15:32:34.080 ,0,0,4.,4.8,0.,4.8,0.,4.8,0.,4.8
1986-01-25 15:32:38.880 ,0,0,10.,4.8,0.,4.8,0.,4.8,0.,4.8
1986-01-25 15:32:43.680 ,0,0,8.,4.8,0.,4.8,0.,4.8,0.,4.8
1986-01-25 15:32:48.480 ,1,0,11.,4.8,0.,4.8,0.,4.8,0.,4.8
1986-01-25 15:32:53.280 ,1,0,11.,4.8,0.,4.8,0.,4.8,0.,4.8
1986-01-25 15:32:58.080 ,1,0,6.,4.8,0.,4.8,0.,4.8,0.,4.8
1986-01-25 15:33:02.880 ,1,0,7.,4.8,0.,4.8,0.,4.8,0.,4.8
1986-01-25 15:33:07.680 ,1,0,6.,4.8,0.,4.8,0.,4.8,0.,4.8
1986-01-25 15:33:12.480 ,1,0,10.,4.8,0.,4.8,0.,4.8,0.,4.8